Weather History for Medicine Lodge, KS

Change the Weather History Date:

Saturday, August 24, 2013

  Actual Average Record
Temperature  
Mean Temperature 84 °F 79 °F  
Max Temperature 96 °F 91 °F 109 °F (1939)
Min Temperature 71 °F 67 °F 45 °F (1896)
Degree Days  
Heating Degree Days 0 0  
Month to date heating degree days 0 0  
Since 1 June heating degree days 4 3  
Since 1 July heating degree days 0 0  
Cooling Degree Days 19 14  
Month to date cooling degree days 299 383  
Year to date cooling degree days 1321 1420  
Since 1 June cooling degree days 1178 1264  
Growing Degree Days 33 (Base 50)    
Moisture  
Dew Point 67 °F    
Average Humidity 64    
Maximum Humidity 93    
Minimum Humidity 34    
Precipitation  
Precipitation 0.00 in 0.11 in 1.76 in (2010)
Month to date precipitation 6.29 2.37  
Year to date precipitation 21.64 19.60  
Snow  
Snow 0.00 in 0.00 in - ()
Month to date snowfall 0.0 0.0  
Since 1 June snowfall 0.0 0.0  
Since 1 July snowfall 0.0 0.0  
Snow Depth 0.00 in    
Sea Level Pressure  
Sea Level Pressure 30.01 in    
Wind  
Wind Speed 9 mph (SSE)    
Max Wind Speed 17 mph    
Max Gust Speed 24 mph    
T = Trace of Precipitation, MM = Missing Value Source: NWS Daily Summary

Daily Weather History Graph

Daily Weather History Graph

Search for Another Location

Airport:

Trip Planner

Search our weather history database for the weather conditions in past years. The results will help you decide how hot, cold, wet, or windy it might be!

Date:

Astronomy

Aug. 24, 2013 Rise Set
Actual Time 6:58 AM CDT 8:13 PM CDT
Civil Twilight 6:31 AM CDT 8:40 PM CDT
Nautical Twilight 5:58 AM CDT 9:13 PM CDT
Astronomical Twilight 5:24 AM CDT 9:46 PM CDT
Moon 10:16 PM CDT (8/24) 10:53 AM CDT (8/24)
Length of Visible Light 14h 09m
Length of Day
13h 15m
Waning Gibbous, 84% of the Moon is Illuminated
Aug 24
Waning Gibbous
Aug 28
Last Quarter
Sep 5
New
Sep 12
First Quarter
Sep 19
Full

Hourly Weather History & Observations

Time (CDT) Temp. Heat Index Dew Point Humidity Pressure Visibility Wind Dir Wind Speed Gust Speed Precip Events Conditions
12:56 AM 78.1 °F - 69.1 °F 74% 29.98 in - SSE 5.8 mph - N/A   Unknown
1:56 AM 75.9 °F - 69.1 °F 79% 29.99 in - SSE 5.8 mph - N/A   Unknown
2:56 AM 75.0 °F - 69.1 °F 82% 29.98 in - SE 6.9 mph - N/A   Unknown
3:56 AM 73.0 °F - 70.0 °F 90% 29.99 in - ESE 5.8 mph - N/A   Unknown
4:56 AM 72.0 °F - 69.1 °F 91% 30.00 in - ESE 5.8 mph - N/A   Unknown
5:56 AM 72.0 °F - 69.1 °F 91% 30.01 in - SE 8.1 mph - N/A   Unknown
6:56 AM 71.1 °F - 68.0 °F 90% 30.02 in - SE 6.9 mph - N/A   Unknown
7:56 AM 73.0 °F - 68.0 °F 84% 30.03 in - SE 9.2 mph - N/A   Unknown
8:56 AM 77.0 °F - 66.9 °F 71% 30.04 in - SSE 5.8 mph - N/A   Unknown
9:56 AM 81.0 °F 83.3 °F 66.9 °F 62% 30.04 in - South 10.4 mph - N/A   Unknown
10:56 AM 84.9 °F 87.6 °F 66.9 °F 55% 30.04 in - South 10.4 mph - N/A   Unknown
11:56 AM 88.0 °F 90.7 °F 66.9 °F 49% 30.04 in - South 9.2 mph 16.1 mph N/A   Unknown
12:56 PM 91.0 °F 93.0 °F 64.9 °F 42% 30.02 in - South 11.5 mph 19.6 mph N/A   Unknown
1:56 PM 93.0 °F 95.0 °F 64.9 °F 39% 30.01 in - South 13.8 mph - N/A   Unknown
2:56 PM 95.0 °F 97.0 °F 64.0 °F 36% 30.00 in - SSE 8.1 mph - N/A   Unknown
3:56 PM 95.0 °F 96.0 °F 63.0 °F 34% 29.97 in - SSE 8.1 mph 19.6 mph N/A   Unknown
4:56 PM 95.0 °F 95.6 °F 62.1 °F 33% 29.96 in - SSE 12.7 mph 20.7 mph N/A   Unknown
5:56 PM 93.9 °F 95.2 °F 63.0 °F 36% 29.96 in - SSE 11.5 mph 20.7 mph N/A   Unknown
6:56 PM 91.9 °F 94.5 °F 66.0 °F 42% 29.96 in - SE 11.5 mph 19.6 mph N/A   Unknown
7:56 PM 88.0 °F 90.7 °F 66.9 °F 49% 29.97 in - SE 10.4 mph 20.7 mph N/A   Unknown
8:56 PM 84.9 °F 87.6 °F 66.9 °F 55% 30.00 in - SE 9.2 mph 19.6 mph N/A   Unknown
9:56 PM 82.9 °F 85.8 °F 68.0 °F 60% 30.03 in - SE 10.4 mph - N/A   Unknown
10:56 PM 82.0 °F 85.5 °F 69.1 °F 65% 30.05 in - SE 8.1 mph - N/A   Unknown
11:56 PM 80.1 °F 82.9 °F 69.1 °F 69% 30.06 in - SSE 8.1 mph - N/A   Unknown